Find Starlink 11325

NORAD ID: 61538 Int'l Des: 2024-184 Owner: SPXS Country: US Constellation: starlink operational
LEOCIRCULAR

Current View

Loading 3D Globe...

About Starlink 11325

Starlink 11325 (NORAD 61538) is a starlink constellation satellite (v2 mini d2c) launched Oct 15, 2024 by SPXS of US. It operates in LEO, CIRCULAR orbit with a mass of 960.00 kg.

About Starlink 11325

Description loading...

Upcoming Passes

Passes for default location (London). Set your location on the main map for personalized predictions.

Altitude History

Loading altitude history...

Two-Line Element Set

1 61538U 24184G 26171.15191877 -.00001335 00000-0 -61677-5 0 9994
2 61538 53.1600 90.9075 0000570 90.9770 269.1313 15.69712650 96512
Epoch: Jun 20, 2026 • Age: 30 hours

Current Status

Altitude 370.3 km
Velocity 7.69 km/s
Sub-Earth Point -33.04°S, 120.23°W
Launch Date Oct 15, 2024
Age 1.6 years
Type internet

Technical Details

Classification Payload
Mass 960.00 kg
Dry Mass 910.00 kg
Total Mass 960.00 kg
Length 0.30 m
Diameter 4.10 m
Span 29.00 m
Shape Box + pan
Manufacturer SPXS
Bus Type Starlink V2MD
Phase Status In Orbit
Owner/State SPXS/US

Most Searched